Location: Burzi?i
(45.0869°N, 16.0577°E)
Time: 04:26:42
(UTC+00:00)

Atlas Centaur 2 - Pass Details

Date: 29 October 2020
Orbit: 459 x 1309 km, 30.4° (Epoch: 01 December)

Event Time Altitude Azimuth Distance (km) Brightness Sun altitude
Rises 19:03:05 0° 255° (WSW) 4,245 6.6 -34.8°
Reaches altitude 10° 19:06:36 10° 243° (WSW) 3,313 5.7 -35.4°
Enters shadow 19:12:17 25° 202° (SSW) 2,377 4.4 -36.4°
